Goodland, KS

9:36 PM MDT on August 24, 2016 (GMT -0600)
Renner-Goodland Municipal

Weather History for KGLD - February, 2013

Change the Weather History Date:

Sunday, February 10, 2013

  Actual Average Record
Temperature  
Mean Temperature 29 °F 31 °F  
Max Temperature 40 °F 44 °F 76 °F (1951)
Min Temperature 18 °F 18 °F -17 °F (1981)
Degree Days  
Heating Degree Days 36 34  
Month to date heating degree days 268 346  
Since 1 July heating degree days 3604 3849  
Cooling Degree Days 0 0  
Month to date cooling degree days 0 0  
Year to date cooling degree days 0 0  
Moisture  
Dew Point 21 °F    
Average Humidity 65    
Maximum Humidity 85    
Minimum Humidity 44    
Precipitation  
Precipitation 0.02 in 0.01 in 0.50 in (1993)
Month to date precipitation 0.07 0.15  
Year to date precipitation 0.14 0.53  
Snow  
Snow 0.30 in 0.30 in - ()
Month to date snowfall 1.0 2.2  
Since 1 July snowfall 11.7 20.8  
Snow Depth 1.00 in    
Sea Level Pressure  
Sea Level Pressure 29.65 in    
Wind  
Wind Speed 26 mph (NW)    
Max Wind Speed 44 mph    
Max Gust Speed 54 mph    
Visibility 6 miles    
Events Snow    
T = Trace of Precipitation, MM = Missing Value Source: NWS Daily Summary

Daily Weather History Graph

Daily Weather History Graph

Search for Another Location

Airport or City:

Trip Planner

Search our weather history database for the weather conditions in past years. The results will help you decide how hot, cold, wet, or windy it might be!

Date:

Astronomy

Feb. 10, 2013 Rise Set
Actual Time 6:44 AM MST 5:18 PM MST
Civil Twilight 6:16 AM MST 5:45 PM MST
Nautical Twilight 5:44 AM MST 6:17 PM MST
Astronomical Twilight 5:13 AM MST 6:48 PM MST
Moon 6:35 AM MST (2/10) 6:10 PM MST (2/10)
Length of Visible Light 11h 29m
Length of Day
10h 33m
New Moon, 0% of the Moon is Illuminated
Feb 10
New Moon
Feb 17
First Quarter
Feb 25
Full
Mar 4
Last Quarter
Mar 11
New

Hourly Weather History & Observations

Time (MST) Temp. Windchill Dew Point Humidity Pressure Visibility Wind Dir Wind Speed Gust Speed Precip Events Conditions
12:07 AM 28.4 °F 14.7 °F 24.8 °F 86% 29.41 in 9.0 mi NW 21.9 mph - N/A   Overcast
12:53 AM 27.0 °F 12.2 °F 23.0 °F 85% 29.39 in 10.0 mi NW 24.2 mph - N/A   Overcast
1:49 AM 26.6 °F 10.0 °F 23.0 °F 86% 29.40 in 2.5 mi NW 31.1 mph 40.3 mph 0.00 in   Overcast
1:53 AM 27.0 °F 10.8 °F 21.9 °F 81% 29.39 in 2.5 mi NW 29.9 mph 36.8 mph 0.00 in   Overcast
2:16 AM 26.6 °F 11.7 °F 21.2 °F 80% 29.41 in 7.0 mi NW 24.2 mph 35.7 mph 0.00 in   Overcast
2:38 AM 26.6 °F 10.6 °F 21.2 °F 80% 29.41 in 2.0 mi NW 28.8 mph 42.6 mph 0.00 in   Overcast
2:48 AM 26.6 °F 9.8 °F 21.2 °F 80% 29.41 in 3.0 mi NW 32.2 mph 39.1 mph 0.00 in   Overcast
2:53 AM 27.0 °F 11.3 °F 21.9 °F 81% 29.39 in 3.0 mi NW 27.6 mph 39.1 mph 0.00 in   Overcast
3:15 AM 26.6 °F 8.7 °F 21.2 °F 80% 29.40 in 1.8 mi NW 38.0 mph 48.3 mph 0.00 in   Overcast
3:28 AM 24.8 °F 7.6 °F 19.4 °F 80% 29.41 in 2.0 mi NW 31.1 mph 43.7 mph 0.00 in   Mostly Cloudy
3:37 AM 24.8 °F 7.6 °F 19.4 °F 80% 29.41 in 4.0 mi NW 31.1 mph 39.1 mph 0.00 in   Scattered Clouds
3:53 AM 25.0 °F 8.1 °F 19.9 °F 81% 29.42 in 6.0 mi NW 29.9 mph 34.5 mph 0.00 in   Haze
4:08 AM 24.8 °F 6.8 °F 19.4 °F 80% 29.43 in 2.0 mi NW 34.5 mph 46.0 mph 0.00 in   Clear
4:31 AM 26.6 °F 9.3 °F 19.4 °F 74% 29.44 in 3.0 mi NW 34.5 mph 46.0 mph 0.00 in   Scattered Clouds
4:53 AM 26.1 °F 8.4 °F 19.9 °F 78% 29.46 in 6.0 mi NW 35.7 mph 44.9 mph 0.00 in   Mostly Cloudy
5:31 AM 26.6 °F 8.3 °F 21.2 °F 80% 29.49 in 2.5 mi NW 40.3 mph 49.5 mph 0.00 in Snow Light Snow
5:41 AM 26.6 °F 8.9 °F 21.2 °F 80% 29.49 in 1.8 mi NW 36.8 mph 49.5 mph 0.00 in Snow Light Snow
5:53 AM 26.1 °F 8.1 °F 21.0 °F 81% 29.52 in 2.0 mi NW 36.8 mph 48.3 mph 0.00 in Snow Light Snow
5:55 AM 26.6 °F 9.1 °F 21.2 °F 80% 29.49 in 1.8 mi NW 35.7 mph 48.3 mph 0.00 in Snow Light Snow
6:10 AM 26.6 °F 9.3 °F 21.2 °F 80% 29.51 in 3.0 mi NW 34.5 mph 42.6 mph 0.00 in Snow Light Snow
6:20 AM 26.6 °F 10.8 °F 23.0 °F 86% 29.52 in 4.0 mi NW 27.6 mph 41.4 mph 0.00 in Snow Light Snow
6:29 AM 26.6 °F 8.5 °F 21.2 °F 80% 29.53 in 1.8 mi NW 39.1 mph 48.3 mph 0.00 in Snow Light Snow
6:44 AM 26.6 °F 9.8 °F 21.2 °F 80% 29.54 in 3.0 mi NW 32.2 mph 44.9 mph 0.00 in Snow Light Snow
6:53 AM 27.0 °F 10.8 °F 21.9 °F 81% 29.59 in 4.0 mi NW 29.9 mph 41.4 mph 0.00 in Snow Light Snow
7:00 AM 26.6 °F 8.5 °F 23.0 °F 86% 29.55 in 1.8 mi NW 39.1 mph 46.0 mph 0.00 in Snow Light Snow
7:32 AM 26.6 °F 8.7 °F 23.0 °F 86% 29.57 in 1.0 mi NW 38.0 mph 50.6 mph 0.00 in Snow Light Snow
7:46 AM 28.4 °F 12.5 °F 24.8 °F 86% 29.59 in 3.0 mi NW 31.1 mph 47.2 mph 0.00 in Snow Light Snow
7:53 AM 28.0 °F 10.9 °F 24.1 °F 85% 29.63 in 2.5 mi NW 36.8 mph 43.7 mph 0.00 in Snow Light Snow
8:11 AM 28.4 °F 10.6 °F 24.8 °F 86% 29.60 in 1.5 mi NW 41.4 mph 50.6 mph 0.00 in Snow Light Snow
8:23 AM 28.4 °F 10.6 °F 24.8 °F 86% 29.61 in 0.8 mi NW 41.4 mph 50.6 mph 0.00 in Snow Light Snow
8:41 AM 28.4 °F 11.2 °F 24.8 °F 86% 29.62 in 1.0 mi NW 38.0 mph 46.0 mph 0.00 in Snow Light Snow
8:53 AM 28.9 °F 12.5 °F 25.0 °F 85% 29.68 in 1.5 mi NW 34.5 mph 43.7 mph 0.00 in Snow Light Snow
9:24 AM 30.2 °F 14.7 °F 26.6 °F 86% 29.66 in 2.0 mi NW 32.2 mph 39.1 mph 0.00 in Snow Light Snow
9:31 AM 30.2 °F 15.7 °F 26.6 °F 86% 29.66 in 3.0 mi NW 27.6 mph 39.1 mph 0.00 in Snow Light Snow
9:41 AM 30.2 °F 14.5 °F 26.6 °F 86% 29.66 in 6.0 mi NW 33.4 mph 42.6 mph 0.00 in Snow Light Snow
9:53 AM 30.9 °F 15.5 °F 25.0 °F 79% 29.72 in 10.0 mi NW 33.4 mph 43.7 mph 0.00 in   Overcast
10:13 AM 32.0 °F 16.7 °F 24.8 °F 75% 29.67 in 10.0 mi NW 34.5 mph 46.0 mph N/A   Overcast
10:53 AM 33.1 °F 18.2 °F 26.1 °F 75% 29.75 in 10.0 mi NW 34.5 mph 46.0 mph N/A   Overcast
11:53 AM 35.1 °F 21.8 °F 26.1 °F 70% 29.77 in 5.0 mi NW 29.9 mph 42.6 mph 0.00 in Snow Light Snow
12:53 PM 37.9 °F 25.1 °F 24.1 °F 57% 29.78 in 10.0 mi NW 33.4 mph 39.1 mph 0.00 in   Overcast
1:53 PM 39.0 °F 26.8 °F 19.9 °F 46% 29.81 in 10.0 mi NW 32.2 mph 46.0 mph N/A   Mostly Cloudy
2:53 PM 36.0 °F 22.6 °F 21.9 °F 57% 29.84 in 10.0 mi NNW 32.2 mph 41.4 mph 0.00 in   Scattered Clouds
3:53 PM 36.0 °F 23.2 °F 19.9 °F 52% 29.89 in 10.0 mi NNW 28.8 mph 38.0 mph N/A   Partly Cloudy
4:53 PM 34.0 °F 20.8 °F 18.0 °F 52% 29.93 in 10.0 mi NNW 27.6 mph 40.3 mph 0.01 in   Scattered Clouds
5:53 PM 30.0 °F 16.9 °F 17.1 °F 59% 29.99 in 10.0 mi NNW 21.9 mph - N/A   Partly Cloudy
6:53 PM 27.0 °F 15.6 °F 16.0 °F 63% 30.01 in 10.0 mi North 13.8 mph - N/A   Clear
7:53 PM 23.0 °F 13.1 °F 16.0 °F 74% 30.05 in 10.0 mi NW 9.2 mph - N/A   Clear
8:53 PM 21.9 °F 10.4 °F 14.0 °F 72% 30.10 in 10.0 mi West 11.5 mph - N/A   Clear
9:53 PM 19.9 °F 7.9 °F 14.0 °F 78% 30.12 in 10.0 mi WNW 11.5 mph - N/A   Clear
10:53 PM 19.9 °F 7.3 °F 12.9 °F 74% 30.13 in 10.0 mi WNW 12.7 mph - N/A   Clear
11:53 PM 19.0 °F 7.5 °F 12.9 °F 77% 30.14 in 10.0 mi WNW 10.4 mph - N/A   Clear